STARLINK-35460

Last updated on Sun Dec 07 2025 00:02:05 GMT+0000 (Coordinated Universal Time)

1 66328U 25253K 25340.58335648 .00093090 00000+0 22114-2 0 9990 2 66328 43.0007 21.0229 0001354 276.6826 93.6015 15.40662944 6031
UTC large
Height (km)
Speed (km/s)
/
Latitude / Longitude
Inclination (degrees)
Orbital Period (minutes)
Azimuth
Elevation
Range (km)
Doppler Factor

Next 0 passes for location: London (51.5072 / 0.1276)

Sorry there are no passes over London.